RH
100 100 94 88 100 94 72 90 75 64 86 71 63 48 46 39 37 34 34 26 24 21 23 18 17 20 29 28 26 17 14 17 20 21 22 23 24 25 24 25 23 23 23 21
100 97 100 96 94 97 92 66 100 77 84 88 72 68 49 40 35 39 36 39 41 25 19 23 24 22 19 21 23 29 30 29 29 26 24 28 26 25 25 26 29 34 33 33
100 96 100 100 94 97 87 80 75 96 81 89 82 79 80 53 47 40 43 39 48 45 32 25 21 23 28 24 20 20 21 22 26 30 33 34 32 34 34 34 35 38 39 40
100 99 100 100 99 100 81 81 79 72 97 74 100 78 72 92 62 46 46 43 34 48 46 35 30 44 42 39 30 25 23 22 24 24 24 25 25 25 26 25 25 26 27 28
98 90 100 100 98 98 100 89 83 73 100 88 83 100 78 96 84 78 55 69 57 40 52 50 37 35 34 45 62 50 38 27 27 33 30 28 28 28 28 28 28 28 28 29
100 87 93 100 100 96 94 99 90 82 99 100 95 99 89 95 100 100 86 79 97 76 54 61 67 57 38 44 54 71 64 57 45 34 30 38 40 34 34 37 41 41 43 45
99 98 83 96 100 100 89 97 99 87 94 100 100 100 100 90 86 100 100 97 72 79 80 72 81 59 74 59 47 59 81 74 77 54 43 37 40 50 51 46 42 43 46 54
100 100 100 100 100 100 99 86 93 94 83 89 100 100 100 100 100 93 100 100 100 100 98 85 85 78 80 78 65 59 55 83 83 85 82 67 46 44 37 45 49 56 56 53
100 100 100 100 100 100 93 97 100 100 100 99 100 100 100 100 100 100 90 100 100 89 99 100 100 88 90 81 71 72 53 68 100 98 97 98 68 57 67 67 54 63 72 73
100 100 100 100 100 100 100 100 100 100 100 100 100 100 100 99 100 100 100 100 100 99 81 92 100 100 100 95 94 90 93 98 80 100 100 100 95 68 64 75 95 100 92 93
100 100 100 100 100 100 100 100 100 100 100 100 100 100 100 96 91 87 97 100 100 100 100 88 98 100 100 89 90 100 95 83 100 90 100 100 100 98 68 49 66 67 77 91
100 100 100 100 100 100 100 100 100 100 100 100 100 100 100 100 100 100 100 100 100 100 100 100 97 96 100 96 78 80 98 97 90 100 98 68 71 99 86 72 63 70 67 67
100 100 100 100 100 100 100 100 100 100 100 100 100 100 100 100 100 100 100 100 100 100 100 100 100 100 100 100 100 84 100 95 100 100 100 100 60 68 51 64 71 69 88 93
98 96 100 100 100 100 100 100 100 100 100 100 100 100 100 100 100 100 100 100 100 100 100 100 100 100 97 100 100 100 100 100 98 77 81 66 78 69 81 63 64 68 81 100
100 99 99 100 100 100 100 100 100 100 100 100 100 100 100 100 100 100 100 100 100 100 100 92 100 100 100 98 100 100 100 100 100 96 66 60 80 81 74 90 91 92 79 91
100 100 100 100 100 100 100 100 100 100 100 100 100 100 100 100 100 100 100 100 100 100 100 95 90 100 100 100 100 100 100 100 84 71 70 81 100 82 88 92 87 95 100 100
100 100 100 100 100 100 96 97 75 81 89 98 100 100 100 100 100 100 100 100 100 100 100 100 100 100 97 100 100 100 100 100 90 99 85 93 100 100 100 100 100 100 91 100
97 100 99 89 81 71 75 63 56 66 64 67 83 73 84 100 100 100 100 97 92 100 100 100 100 100 100 100 100 100 100 97 89 92 100 100 100 100 100 100 95 98 100 100
87 58 59 71 79 69 78 88 81 67 47 46 47 54 65 89 76 64 63 62 66 78 65 69 62 68 92 85 95 100 100 100 100 100 100 99 99 100 100 100 100 100 100 100
67 90 94 67 72 66 53 62 73 49 40 37 44 46 44 47 36 47 44 34 32 32 38 48 32 36 63 58 58 64 84 100 100 100 100 99 67 74 80 100 100 95 90 94
68 41 53 51 34 30 28 38 28 25 22 24 26 28 29 29 21 24 23 24 25 20 20 29 21 26 39 37 32 43 52 62 73 75 92 80 58 62 58 55 79 91 98 100
29 20 20 22 21 20 19 21 20 16 16 18 17 17 19 20 17 18 16 16 17 19 16 17 16 19 19 20 26 35 28 31 44 52 38 34 35 50 57 60 61 65 72 86
19 17 14 14 14 15 15 16 12 11 12 12 12 11 11 12 13 11 10 11 13 10 10 10 12 12 11 12 13 16 16 17 17 17 16 18 19 34 61 68 62 70 66 78
12 11 12 12 12 11 12 12 11 11 10 10 9 9 9 9 9 9 9 8 8 8 8 10 10 10 10 10 10 10 11 11 12 13 12 12 14 18 36 65 77 80 65 56
14 14 13 14 14 12 11 12 12 11 11 11 10 10 10 10 9 10 9 9 9 10 10 10 10 10 9 9 9 9 8 9 10 11 12 12 13 16 23 37 55 66 62 62
12 11 13 12 12 11 12 11 11 11 10 10 10 9 8 9 8 8 8 8 8 8 7 7 7 7 7 6 6 7 8 9 10 10 12 13 13 14 15 17 16 15 15 16
11 13 12 12 12 11 10 11 12 13 12 10 9 8 8 8 7 8 9 8 8 7 8 8 7 6 5 5 6 6 6 7 7 9 10 10 10 11 12 13 13 13 12 12
Wind_Speed
37 42 44 47 49 50 55 54 54 58 57 61 64 67 70 72 76 76 78 81 84 82 81 79 74 61 52 44 31 19 10 6 6 7 10 14 17 21 25 28 29 29 28 26
32 39 39 43 46 44 50 54 43 52 49 51 56 58 62 64 68 68 71 72 72 76 73 76 76 74 69 61 50 45 37 28 18 11 9 10 7 6 9 11 8 5 6 6
29 39 38 41 45 42 45 49 47 42 44 44 48 52 52 56 57 61 61 64 64 64 68 68 71 70 69 68 63 58 53 45 38 33 29 25 22 21 21 18 16 14 12 10
33 37 38 38 42 40 46 47 41 41 36 41 38 47 47 44 49 50 52 55 58 57 54 62 63 61 62 65 64 59 55 55 54 50 42 38 35 32 31 27 25 23 19 17
34 39 37 38 42 43 35 46 40 40 31 38 38 38 43 38 41 41 45 45 48 51 51 48 54 54 56 54 53 56 58 56 50 49 46 47 45 39 37 34 34 32 29 28
39 43 42 38 43 46 45 45 40 41 33 33 36 37 40 35 32 36 39 40 39 43 44 43 45 49 51 50 47 45 48 47 49 51 48 46 43 41 41 42 39 37 35 34
44 46 48 48 46 46 50 43 40 40 34 32 32 36 38 38 37 31 33 36 40 38 40 38 35 39 41 42 42 41 37 41 38 38 42 43 42 38 37 36 35 35 34 34
49 50 52 52 51 49 47 47 43 39 38 35 33 34 35 34 41 35 29 30 39 40 37 38 37 32 35 35 37 38 38 34 37 32 32 34 40 37 35 35 33 32 32 32
53 53 53 53 53 52 49 44 46 45 37 36 33 37 40 40 37 39 35 36 36 40 37 37 38 37 33 32 33 33 36 34 29 35 28 25 32 38 32 33 34 35 33 32
56 56 53 52 46 48 45 47 43 43 43 41 41 43 45 48 49 41 33 36 39 45 46 40 40 38 42 38 32 32 29 29 31 29 31 24 24 36 35 30 30 29 31 32
59 58 51 54 57 55 50 47 46 44 49 51 52 54 54 54 54 52 46 40 43 46 48 48 45 42 44 44 41 34 35 30 24 32 35 34 28 35 36 38 34 31 30 30
69 66 66 65 62 57 57 62 59 59 59 58 58 59 59 58 53 52 50 51 53 48 51 51 48 47 47 47 45 45 46 46 34 34 41 40 41 43 44 43 41 37 34 33
76 73 69 69 67 66 62 58 61 62 60 61 65 65 58 58 60 61 58 63 65 64 61 58 56 53 53 52 53 52 55 55 46 44 53 49 50 48 49 42 40 40 39 38
88 86 84 82 79 78 75 75 72 70 71 69 64 69 70 71 70 70 70 70 72 73 74 71 66 62 61 60 59 58 63 63 60 54 60 57 57 52 49 48 47 42 41 42
93 92 93 91 89 85 84 83 83 84 82 75 73 72 78 79 78 78 80 81 79 80 81 80 79 77 77 69 67 61 68 67 67 64 69 64 61 59 55 52 50 48 47 45
102 101 101 99 100 99 96 97 96 98 97 88 83 84 83 89 90 88 87 88 90 89 87 90 84 83 88 77 62 59 70 70 72 69 70 67 61 65 60 59 52 49 52 52
112 112 109 111 107 110 107 109 110 109 109 105 100 93 92 95 97 103 103 101 98 99 99 94 92 91 97 89 77 63 76 72 74 70 70 68 68 62 65 65 64 62 58 60
123 123 124 123 121 119 119 123 114 116 121 118 113 109 105 107 111 112 112 117 116 114 112 109 104 102 101 89 83 81 81 84 84 78 79 79 74 73 72 74 73 68 69 69
132 128 128 127 130 130 128 132 128 125 124 121 120 113 112 114 114 119 123 124 122 124 123 122 121 111 105 101 103 102 99 93 90 92 90 91 90 85 82 75 74 72 74 77
132 133 131 132 136 133 126 126 131 126 120 120 118 118 122 117 114 114 119 124 124 121 117 120 121 112 111 109 111 111 105 104 104 100 99 98 97 95 92 91 87 82 83 82
137 129 133 131 126 124 123 118 118 116 119 119 119 123 120 118 120 121 123 121 120 119 112 116 113 105 114 116 108 107 110 108 111 108 102 103 103 100 100 95 96 94 90 90
123 119 117 119 122 121 117 114 109 113 116 114 114 120 120 119 118 119 120 120 119 121 115 111 103 103 107 108 105 102 106 101 105 107 107 105 104 102 100 99 97 98 98 96
118 120 118 109 108 112 111 105 107 110 106 110 114 113 111 115 118 117 116 109 110 110 105 101 95 100 103 102 102 101 97 99 97 99 103 103 102 102 101 102 103 102 101 103
116 113 110 106 98 99 102 100 102 104 104 107 107 107 108 104 106 104 101 103 99 93 89 89 92 94 96 94 96 98 96 94 95 98 99 99 99 98 102 107 107 107 107 106
110 107 98 91 90 96 97 97 99 100 100 98 97 98 98 97 97 95 94 92 87 86 88 88 87 88 89 89 86 87 89 90 90 93 96 97 98 98 101 105 110 114 113 111
100 94 91 89 89 91 94 96 96 97 95 95 96 95 95 92 90 89 89 87 83 82 80 78 81 82 81 81 81 83 80 82 84 86 86 89 90 94 99 101 99 97 98 99
91 85 87 88 87 86 89 90 90 94 95 93 91 88 88 86 82 82 83 82 78 77 74 73 76 79 78 74 75 78 77 77 79 83 83 85 86 88 87 88 90 91 90 87
Wind_Direction
344 351 353 356 0 2 6 11 17 15 18 20 18 21 23 24 26 27 31 32 36 45 51 51 53 57 60 63 64 66 78 125 171 207 232 244 257 263 263 265 268 266 266 265
337 342 345 350 353 357 1 4 11 10 15 16 18 17 19 21 23 25 26 28 32 34 36 43 48 52 55 58 61 66 69 67 70 89 113 122 179 234 228 232 233 228 224 177
323 330 337 342 346 351 355 356 5 8 7 14 13 16 17 18 23 23 24 26 28 31 32 35 34 40 46 50 55 57 60 63 66 68 68 70 71 72 72 78 75 68 63 49
310 321 332 332 337 344 346 350 360 3 3 9 2 8 12 13 16 20 22 23 24 27 33 29 31 33 36 38 47 52 55 56 58 60 62 65 66 66 65 62 59 54 48 39
304 315 322 324 327 336 337 343 349 356 356 2 4 0 7 8 7 13 19 23 24 25 23 25 25 27 28 31 35 37 40 47 52 53 55 55 57 65 66 65 63 62 59 54
297 304 311 315 319 323 326 331 336 339 352 348 350 354 359 10 0 6 12 21 21 19 22 20 20 20 18 21 27 30 35 35 36 36 42 46 47 51 51 50 53 51 50 49
294 298 302 307 309 313 318 322 323 328 336 335 334 343 344 348 356 354 351 358 3 3 6 11 14 11 11 15 17 18 21 27 30 36 34 34 34 37 39 40 45 43 43 44
285 292 296 301 303 303 309 313 314 318 322 320 319 329 331 335 338 343 339 346 345 352 351 351 357 1 3 0 3 8 7 9 15 22 23 25 20 21 23 22 27 27 29 28
281 287 291 294 296 300 302 304 307 310 308 313 305 311 313 319 323 329 333 320 328 340 337 334 338 342 346 346 347 349 353 360 354 0 7 13 8 7 6 7 6 9 10 9
279 280 283 291 286 293 285 292 299 295 295 301 298 300 301 308 309 312 312 311 310 320 324 327 326 327 332 335 333 336 340 343 347 341 345 348 349 351 354 350 350 349 350 352
276 276 273 278 283 284 287 290 290 290 290 295 297 299 301 302 302 303 304 300 299 306 310 314 313 314 317 321 320 317 321 322 321 325 325 331 323 329 335 339 341 340 334 334
272 272 274 278 279 279 281 284 284 286 290 288 291 292 295 297 296 296 296 295 296 301 295 301 305 304 305 309 313 310 311 315 306 299 309 314 314 315 321 323 326 331 332 328
267 269 271 274 276 278 277 275 276 279 278 282 286 285 283 282 284 288 291 295 295 297 297 297 297 298 296 298 301 305 303 306 302 297 298 301 308 305 313 311 312 315 316 320
267 268 271 272 273 274 276 276 273 272 271 274 275 279 280 282 284 285 287 289 289 291 293 294 295 293 293 293 293 298 296 296 295 299 294 301 302 302 300 302 303 305 305 304
264 266 268 269 270 270 272 272 273 273 274 272 271 272 278 277 277 278 282 284 285 287 288 288 289 291 288 287 292 297 284 283 286 290 293 298 298 296 293 292 294 296 299 298
265 265 265 267 268 269 272 275 273 275 273 272 273 274 273 277 278 279 280 279 279 280 282 286 286 286 284 284 288 287 277 274 281 286 287 289 288 288 284 284 282 290 296 295
265 265 266 266 271 270 268 273 273 274 274 273 271 271 272 273 274 277 277 278 276 278 278 278 280 281 280 282 286 277 269 274 280 274 276 281 281 279 279 278 277 279 278 280
264 265 266 268 269 269 269 271 271 272 272 268 270 269 268 268 270 272 273 274 273 271 272 272 272 273 275 277 279 269 270 277 279 279 271 271 270 271 271 270 275 276 273 273
266 268 266 266 268 268 270 271 271 274 273 269 268 267 267 268 269 267 266 267 268 269 272 271 269 268 273 271 270 271 270 273 273 275 277 273 272 268 268 266 268 272 274 275
265 267 268 271 271 271 268 270 270 272 270 270 270 270 269 268 266 264 263 266 267 268 268 269 272 272 271 270 268 267 267 267 267 269 272 271 271 270 269 266 263 265 269 271
265 269 268 267 270 269 269 269 269 270 271 270 271 269 267 269 271 268 269 268 268 269 271 270 274 271 271 269 271 268 268 266 264 267 266 270 272 270 270 266 263 262 265 268
267 267 270 268 266 267 268 268 269 272 269 268 269 269 270 268 270 268 270 271 270 271 272 270 271 268 268 269 269 267 267 268 267 267 269 269 270 268 270 268 269 268 265 266
266 270 267 270 270 269 271 270 269 269 270 269 269 271 271 268 269 270 271 270 267 269 270 269 269 267 267 266 266 264 265 265 266 267 267 267 269 268 266 267 269 269 268 267
270 269 270 271 274 273 271 272 272 271 271 268 268 269 270 273 272 272 273 272 273 273 273 272 269 268 268 268 266 266 267 268 265 264 266 267 268 267 266 264 265 267 270 270
267 270 272 276 275 272 272 270 270 271 271 271 273 272 272 271 272 273 273 274 275 275 274 272 270 269 268 269 269 268 267 266 263 263 262 264 265 264 265 265 266 266 268 267
268 271 273 272 270 269 270 271 272 271 271 272 271 271 270 271 272 272 273 274 274 272 271 271 270 269 268 268 267 266 266 266 266 263 264 263 262 261 262 262 263 265 266 266
268 270 271 270 267 267 267 269 270 270 271 270 269 270 271 271 273 273 272 273 270 268 267 266 266 266 265 264 264 265 263 261 261 262 262 262 262 261 259 259 261 263 264 264